TimePDT,TemperatureF,Dew PointF,Humidity,Sea Level PressureIn,VisibilityMPH,Wind Direction,Wind SpeedMPH,Gust SpeedMPH,PrecipitationIn,Events,Conditions,WindDirDegrees,DateUTC
12:53 AM,55.9,50.0,80,29.91,10.0,Calm,Calm,-,N/A,,Clear,0,2012-10-07 07:53:00
1:53 AM,55.0,50.0,83,29.90,10.0,Calm,Calm,-,N/A,,Clear,0,2012-10-07 08:53:00
2:53 AM,54.0,48.9,83,29.89,9.0,Calm,Calm,-,N/A,,Clear,0,2012-10-07 09:53:00
3:53 AM,55.0,51.1,86,29.88,10.0,Calm,Calm,-,N/A,,Clear,0,2012-10-07 10:53:00
4:53 AM,54.0,48.9,83,29.88,10.0,Calm,Calm,-,N/A,,Clear,0,2012-10-07 11:53:00
5:53 AM,53.1,48.9,86,29.90,10.0,Calm,Calm,-,N/A,,Clear,0,2012-10-07 12:53:00
6:53 AM,52.0,46.9,83,29.92,10.0,North,-9999.0,-,N/A,,Clear,0,2012-10-07 13:53:00
7:53 AM,57.0,52.0,83,29.93,8.0,Calm,Calm,-,N/A,,Clear,0,2012-10-07 14:53:00
8:53 AM,68.0,50.0,52,29.93,10.0,Calm,Calm,-,N/A,,Clear,0,2012-10-07 15:53:00
9:53 AM,73.9,51.1,45,29.92,10.0,Calm,Calm,-,N/A,,Clear,0,2012-10-07 16:53:00
10:53 AM,75.0,59.0,57,29.91,10.0,WNW,10.4,-,N/A,,Clear,300,2012-10-07 17:53:00
11:53 AM,78.1,55.0,45,29.91,10.0,NW,8.1,-,N/A,,Clear,320,2012-10-07 18:53:00
12:53 PM,79.0,57.9,48,29.89,10.0,NW,8.1,-,N/A,,Clear,320,2012-10-07 19:53:00
1:53 PM,80.1,57.0,45,29.87,10.0,Variable,6.9,-,N/A,,Clear,0,2012-10-07 20:53:00
2:53 PM,80.1,55.0,42,29.86,10.0,West,10.4,-,N/A,,Clear,260,2012-10-07 21:53:00
3:53 PM,78.1,57.0,48,29.86,10.0,West,12.7,-,N/A,,Clear,270,2012-10-07 22:53:00
4:53 PM,75.0,57.9,55,29.87,10.0,West,10.4,-,N/A,,Clear,280,2012-10-07 23:53:00
5:53 PM,71.1,57.9,63,29.89,10.0,WNW,8.1,-,N/A,,Clear,290,2012-10-08 00:53:00
6:53 PM,62.1,57.0,84,29.90,10.0,West,4.6,-,N/A,,Clear,270,2012-10-08 01:53:00
7:53 PM,61.0,55.9,83,29.91,10.0,Calm,Calm,-,N/A,,Clear,0,2012-10-08 02:53:00
8:53 PM,57.9,55.0,90,29.92,10.0,Calm,Calm,-,N/A,,Clear,0,2012-10-08 03:53:00
9:53 PM,59.0,55.0,87,29.91,10.0,Calm,Calm,-,N/A,,Clear,0,2012-10-08 04:53:00
10:53 PM,57.0,52.0,83,29.92,10.0,Calm,Calm,-,N/A,,Clear,0,2012-10-08 05:53:00
11:53 PM,54.0,52.0,93,29.92,9.0,Calm,Calm,-,N/A,,Clear,0,2012-10-08 06:53:00